Torna al catalogo

COSMOS 2381

GLONASS

AttivoNavigazioneMEO
NORAD 26988·PAYLOAD·🇷🇺 Russia

Lanciato Dec 1, 2001 da Baikonur Cosmodrome

Loading…

Prossimi Passaggi (prossime 24 ore)

TLE

In scadenzaSource: Space-Track

Epoca: Aug 29, 2026, 00:27 UTC

1 26988U 01053B   26241.01876500  .00000009  00000-0  00000+0 0  9992
2 26988  64.1401  54.8949 0045589 227.9982 102.6568  2.13103786192573

Traccia COSMOS 2381 in tempo reale con AllMySat

Download on the App Store